This is the latest recevied weather packets stored in our database for station/object AA8FM-13. If no packets are shown the sender has not sent any weather packets the latest 10 day(s).
| Time | Temp. | Humidity | Pressure | Rain* | Wind** | Luminosity | Snow |
|---|---|---|---|---|---|---|---|
| 1777419292 | 20.56° C | 81% | 1010.6 hPa | 0 mm | - | 23 W/m² | - |
| 1777418989 | 20.56° C | 81% | 1010.4 hPa | 0 mm | - | 24 W/m² | - |
| 1777418684 | 20° C | 81% | 1010.4 hPa | 0 mm | - | 24 W/m² | - |
| 1777418381 | 20.56° C | 81% | 1010.5 hPa | 0 mm | - | 22 W/m² | - |
| 1777418077 | 20.56° C | 79% | 1010.8 hPa | 0 mm | - | 27 W/m² | - |
| 1777417773 | 21.11° C | 78% | 1010.6 hPa | 0 mm | - | 53 W/m² | - |
| 1777417468 | 21.67° C | 77% | 1010.7 hPa | 0 mm | - | 42 W/m² | - |
| 1777417165 | 21.67° C | 76% | 1010.6 hPa | 0 mm | - | 71 W/m² | - |
| 1777416861 | 21.67° C | 76% | 1010.7 hPa | 0 mm | - | 46 W/m² | - |
| 1777416557 | 21.67° C | 77% | 1010.6 hPa | 0 mm | - | 72 W/m² | - |
| 1777416253 | 21.11° C | 78% | 1010.8 hPa | 0 mm | - | 56 W/m² | - |
| 1777415952 | 21.11° C | 78% | 1010.7 hPa | 0 mm | - | 110 W/m² | - |
| 1777415648 | 21.67° C | 78% | 1010.8 hPa | 0 mm | - | 120 W/m² | - |
| 1777415344 | 21.67° C | 78% | 1010.9 hPa | 0 mm | - | 139 W/m² | - |
| 1777415039 | 21.67° C | 78% | 1011 hPa | 0 mm | - | 143 W/m² | - |
| 1777414738 | 21.67° C | 78% | 1011.2 hPa | 0 mm | - | 155 W/m² | - |
| 1777414434 | 21.67° C | 79% | 1011.2 hPa | 0 mm | - | 79 W/m² | - |
| 1777414134 | 21.67° C | 81% | 1011.3 hPa | 0 mm | - | 68 W/m² | - |
| 1777413829 | 21.67° C | 80% | 1011.4 hPa | 0 mm | - | 133 W/m² | - |
| 1777413525 | 22.22° C | 78% | 1011.6 hPa | 0 mm | - | 101 W/m² | - |
| 1777413221 | 22.78° C | 78% | 1011.6 hPa | 0 mm | - | 203 W/m² | - |
| 1777412917 | 22.22° C | 76% | 1011.2 hPa | 0 mm | - | 271 W/m² | - |
| 1777412616 | 21.67° C | 80% | 1011.5 hPa | 0 mm | - | 248 W/m² | - |
| 1777412313 | 21.67° C | 80% | 1011.3 hPa | 0 mm | - | 250 W/m² | - |
| 1777412009 | 21.67° C | 81% | 1011.4 hPa | 0 mm | - | 277 W/m² | - |
* Rain latest hour (hover to see other rain measurements)
** Current wind speed in m/s (hover to see current wind gust speed)